SCP
0 0 0 0 0 0 0 0 0 0 0 1 1 2 3 4 4 4 3 3 3 3 3 3 3 3 4 4 4 4 3 3 3 2 2 3 3 2 2 2 2 2 2 2
0 0 0 0 0 0 0 0 0 0 0 1 1 2 3 4 4 4 4 4 4 4 4 4 4 4 4 4 4 3 3 2 2 2 3 3 3 2 2 2 2 2 2 2
0 0 0 0 0 0 0 0 0 0 0 0 1 1 2 3 4 4 5 5 5 6 5 5 5 5 5 5 4 3 3 3 2 3 3 3 3 2 1 1 1 1 1 1
0 0 0 0 0 0 0 0 0 0 0 0 0 0 1 2 3 4 4 5 6 7 7 7 8 7 7 6 5 4 4 3 3 3 4 3 2 1 1 1 1 1 1 1
0 0 0 0 0 0 0 0 0 0 0 0 0 0 1 1 2 2 3 4 5 6 7 7 8 8 7 6 5 5 5 5 5 5 4 4 3 2 2 2 2 2 2 1
0 0 0 0 0 0 0 0 0 0 0 0 0 0 1 1 1 2 2 3 3 3 4 4 5 5 5 4 5 5 5 6 6 5 5 5 4 3 3 3 3 3 2 2
0 0 0 0 0 0 0 0 0 0 0 0 0 0 1 1 2 2 2 2 2 2 2 2 2 2 2 3 4 4 5 6 6 5 5 5 4 4 3 3 3 3 3 2
0 0 0 0 0 0 0 0 0 0 0 0 0 0 1 1 1 1 1 1 1 1 1 1 1 1 1 2 2 3 4 5 5 4 4 4 4 4 4 4 4 4 3 3
0 0 0 0 0 0 0 0 0 0 0 0 0 0 1 1 1 1 1 1 1 1 1 1 1 1 1 2 2 3 3 4 4 4 4 4 4 4 4 4 4 4 4 4
0 0 0 0 0 0 0 0 0 0 0 0 0 0 1 1 1 1 1 1 1 1 1 1 1 1 1 2 2 3 3 3 3 3 3 3 3 4 4 4 4 4 4 4
0 0 0 0 0 0 0 0 0 0 0 0 0 0 1 1 1 1 0 0 0 0 0 1 1 1 1 2 2 2 2 2 2 2 2 2 3 3 4 4 4 4 4 4
0 0 0 0 0 0 0 0 0 0 0 0 0 1 1 1 1 1 0 0 0 0 0 0 1 1 1 1 1 1 1 1 1 2 2 2 2 3 3 3 4 4 4 3
0 0 0 0 0 0 0 0 0 0 0 0 0 1 1 1 0 0 0 0 0 0 0 0 0 0 0 0 0 0 0 1 1 1 1 2 2 2 2 3 4 4 4 3
0 0 0 0 0 0 0 0 0 0 0 0 1 1 1 1 0 0 0 0 0 0 0 0 0 0 0 0 0 0 0 0 0 1 1 2 2 2 2 2 3 4 4 3
0 0 0 0 0 0 0 0 0 0 1 1 1 1 1 1 0 0 0 0 0 0 0 0 0 0 0 0 0 0 0 0 0 1 1 2 2 2 1 2 2 3 3 3
0 0 0 0 0 0 0 1 1 1 1 1 1 1 1 0 0 0 0 0 0 0 0 0 0 0 0 0 0 0 0 0 0 1 1 2 2 1 1 1 1 2 2 3
0 0 0 0 0 0 1 1 1 1 1 1 1 1 0 0 0 0 0 0 0 0 0 0 0 0 0 0 0 0 0 0 0 0 1 1 1 1 1 1 1 1 2 2
0 0 0 0 0 1 1 1 0 0 0 0 0 0 0 0 0 0 0 0 0 0 0 0 0 0 0 0 0 0 0 0 0 0 0 1 1 1 1 1 1 1 1 1
0 0 0 0 0 1 1 0 0 0 0 0 0 0 0 0 0 0 0 0 0 0 0 0 0 0 0 0 0 0 0 0 0 0 0 0 1 1 1 1 1 1 1 1
0 0 0 0 0 0 0 0 0 0 0 0 0 0 0 0 0 0 0 0 0 0 0 0 0 0 0 0 0 0 0 0 0 0 0 0 0 1 1 1 1 1 1 1
0 0 0 0 0 0 0 0 0 0 0 0 0 0 0 0 0 0 0 0 0 0 0 0 0 0 0 0 0 0 0 0 0 0 0 0 0 0 0 1 1 1 1 1
0 0 0 0 0 0 0 0 0 0 0 0 0 0 0 0 0 0 0 0 0 0 0 0 0 0 0 0 0 0 0 0 0 0 0 0 0 0 0 0 1 1 1 1
0 0 0 0 0 0 0 0 0 0 0 0 0 0 0 0 0 0 0 0 0 0 0 0 0 0 0 0 0 0 0 0 0 0 0 0 0 0 0 0 0 0 1 1
0 0 0 0 0 0 0 0 0 0 0 0 0 0 0 0 0 0 0 0 0 0 0 0 0 0 0 0 0 0 0 0 0 0 0 0 0 0 0 0 0 0 0 1
0 0 0 0 0 0 0 0 0 0 0 0 0 0 0 0 0 0 0 0 0 0 0 0 0 0 0 0 0 0 0 0 0 0 0 0 0 0 0 0 0 0 0 0
0 0 0 0 0 0 0 0 0 0 0 0 0 0 0 0 0 0 0 0 0 0 0 0 0 0 0 0 0 0 0 0 0 0 0 0 0 0 0 0 0 0 0 0
Wind_Speed
3 6 2 1 2 3 2 4 4 1 2 3 1 0 1 1 2 3 4 5 6 6 7 7 6 7 7 7 7 6 5 5 3 2 2 2 2 3 3 4 4 6 6 7
6 3 4 0 2 4 5 5 4 3 1 4 3 2 2 2 1 1 3 4 6 7 7 7 7 6 7 7 6 6 6 5 4 2 1 1 3 3 3 4 3 5 6 7
2 6 2 3 4 5 3 4 3 3 2 6 6 8 7 5 3 2 3 3 4 5 6 7 6 5 5 5 4 3 3 4 4 3 3 2 2 4 3 3 3 4 6 6
2 3 1 3 1 4 2 2 5 6 9 7 4 9 5 5 4 3 2 3 4 4 4 4 4 3 2 2 2 3 3 4 4 5 4 4 4 5 4 4 4 5 6 6
1 2 2 2 2 5 4 3 5 8 10 11 7 10 3 5 2 1 2 2 2 2 2 1 1 1 1 2 2 3 4 5 5 6 5 6 7 5 5 5 5 6 6 6
2 2 3 4 2 3 1 5 7 9 9 9 2 8 2 4 4 3 3 3 3 4 4 4 3 3 4 4 4 4 4 6 6 7 7 8 8 8 8 8 7 7 5 5
3 3 2 3 6 4 6 9 7 6 5 2 2 7 4 6 5 5 4 5 6 6 6 6 6 6 6 6 6 5 5 6 6 7 8 9 9 10 10 10 8 7 7 6
3 1 2 3 6 8 7 9 8 8 8 5 4 5 7 6 5 6 6 7 8 8 8 9 9 8 7 7 7 7 6 6 7 7 8 8 9 9 8 8 8 8 7 7
4 4 2 2 5 8 7 7 7 10 12 10 6 3 7 6 6 7 7 8 9 9 10 10 10 9 9 9 9 8 8 8 8 8 8 8 9 10 10 9 10 9 7 7
5 8 5 1 4 2 5 6 5 8 9 10 7 7 4 7 4 5 6 8 8 8 9 10 9 9 9 9 8 9 8 8 9 9 8 8 9 9 10 10 11 10 9 8
7 9 8 4 5 7 3 4 6 8 8 11 12 5 8 6 5 4 6 7 8 9 9 10 10 10 10 10 9 9 9 9 9 9 10 10 10 10 10 10 11 10 10 9
4 8 10 7 0 1 5 6 6 8 9 9 12 3 9 7 5 4 5 6 7 8 9 10 11 11 10 10 10 10 9 9 9 10 10 10 10 10 10 11 11 10 10 10
3 7 11 7 5 6 4 4 7 8 9 10 13 2 7 5 4 4 6 8 9 9 10 11 10 10 10 10 10 10 10 10 10 10 10 10 11 11 11 11 11 10 10 10
5 9 12 14 11 9 9 7 6 9 10 11 11 3 5 3 4 6 9 10 11 11 11 10 10 10 10 10 10 11 11 10 10 11 11 11 11 12 12 12 11 10 10 10
5 10 11 12 11 9 8 8 8 8 10 11 11 6 6 6 8 9 11 12 13 12 12 11 10 10 11 11 11 11 12 12 12 12 13 12 12 12 12 11 11 10 10 10
4 8 11 12 9 5 2 7 7 6 7 8 6 4 7 8 10 10 12 12 13 12 13 13 14 14 14 13 13 13 13 13 13 14 14 14 13 13 12 12 11 11 10 10
5 6 8 8 3 7 2 8 9 6 6 9 7 6 10 12 13 13 13 14 14 14 15 17 17 16 15 15 15 15 15 14 14 15 15 14 14 14 13 12 12 11 11 10
5 6 6 8 7 6 9 7 8 6 4 4 5 8 11 13 15 16 16 14 14 17 18 18 18 18 17 17 16 16 16 15 15 15 15 15 15 14 13 13 12 12 10 9
5 5 6 7 9 4 6 6 9 9 8 2 7 13 16 17 19 17 12 14 18 20 20 19 19 19 18 18 17 17 17 17 17 16 16 15 15 15 15 14 13 12 11 10
2 4 7 7 10 5 6 8 9 9 7 3 14 18 19 21 19 15 18 21 21 20 19 19 19 20 18 17 17 18 18 18 17 17 16 15 15 15 15 15 14 12 10 10
7 5 6 8 6 4 6 9 10 9 10 16 18 19 20 20 19 21 23 22 21 21 21 21 20 19 18 18 18 18 18 18 17 16 16 15 15 15 16 14 12 11 11 10
7 7 6 7 6 4 7 9 9 11 15 16 19 20 21 22 23 23 23 23 22 22 22 22 19 19 18 18 18 19 19 18 17 17 16 16 15 15 13 13 12 11 10 10
5 7 6 6 5 5 6 9 10 13 16 19 19 22 23 24 24 25 24 23 22 22 22 21 21 20 19 18 18 20 19 18 17 17 17 16 16 14 14 13 13 11 10 8
4 1 4 4 3 7 10 10 12 15 18 20 21 23 24 25 26 26 24 22 23 22 21 20 21 21 20 18 18 19 18 18 17 17 16 15 14 14 13 10 10 10 9 7
3 2 4 7 7 11 9 14 18 19 20 22 22 23 24 26 26 26 24 23 22 21 20 20 20 20 21 19 19 19 18 17 17 17 16 15 14 13 11 11 9 10 9 7
2 4 6 8 10 13 17 18 20 21 21 22 24 25 24 25 26 26 24 22 22 22 21 21 21 21 21 20 19 18 17 16 16 15 14 12 11 10 9 10 9 9 10 8
Wind_Direction
241 241 209 100 288 340 274 255 236 197 29 290 264 233 103 101 142 142 150 153 147 139 133 133 133 139 142 145 149 152 159 162 183 187 236 256 281 293 296 296 313 304 303 306
216 131 58 48 203 221 226 232 219 177 128 282 266 248 153 120 117 123 151 153 150 146 142 139 139 141 142 146 149 158 168 166 186 168 229 283 311 302 313 312 313 306 313 310
31 62 85 199 191 217 227 279 299 299 262 227 254 235 185 151 138 118 141 150 156 155 151 148 147 142 145 147 158 163 170 180 200 201 224 228 243 257 269 294 294 310 311 307
61 72 211 224 195 276 259 5 303 289 278 270 266 277 186 162 157 137 147 166 163 152 151 147 146 139 148 168 188 196 204 212 216 223 241 263 281 296 311 301 309 306 295 299
49 2 291 281 356 304 354 347 292 286 280 274 249 270 181 146 165 98 107 143 136 131 134 117 48 346 319 293 264 243 234 235 234 242 245 252 264 278 286 293 290 288 290 288
297 261 302 328 334 306 245 250 246 247 258 255 262 279 206 74 9 11 70 70 48 36 34 28 16 2 345 328 311 290 269 260 256 253 255 256 268 274 283 286 292 287 289 284
261 212 177 265 267 214 245 281 281 264 250 274 113 265 67 56 32 23 33 50 47 43 38 33 28 20 10 358 345 322 307 293 282 269 263 260 262 265 264 271 278 283 291 290
303 308 45 344 317 310 300 294 294 302 302 306 229 256 94 86 73 65 59 56 52 49 44 40 33 24 17 12 6 353 339 324 312 295 283 274 268 265 266 263 275 279 283 292
323 336 79 353 312 298 288 281 316 289 283 281 272 134 137 126 95 76 67 56 47 42 40 35 31 24 20 16 12 6 356 347 339 326 310 290 281 276 276 273 260 264 266 275
307 304 321 353 245 183 306 306 268 276 292 291 282 257 196 145 105 78 60 49 40 32 30 26 21 18 13 14 11 7 3 356 350 343 332 322 307 291 279 271 266 267 267 267
288 293 299 287 309 329 277 256 293 289 289 293 295 323 61 88 80 61 51 38 28 19 17 14 10 7 3 3 3 360 358 355 351 346 339 332 323 309 294 278 268 262 259 259
296 295 300 300 43 281 292 309 301 298 299 286 285 342 82 83 76 46 29 19 11 4 2 0 358 353 352 351 348 348 346 345 343 340 334 331 325 317 307 296 285 272 261 257
301 281 286 270 194 194 247 275 290 293 283 280 288 33 99 92 71 37 11 359 349 347 347 346 348 344 339 337 334 332 332 332 330 329 325 326 325 322 316 308 297 283 270 263
282 274 283 297 313 318 302 296 292 288 286 296 306 0 113 55 8 2 354 343 335 332 332 332 332 327 324 320 318 317 318 318 317 316 315 318 319 320 318 315 306 293 281 271
280 277 282 287 293 291 301 321 320 306 310 307 325 9 44 18 350 341 335 328 322 321 321 319 316 312 311 310 310 309 309 309 310 309 310 310 311 312 312 312 308 300 288 276
280 287 290 282 281 282 341 5 345 347 339 325 326 44 25 345 330 322 317 311 304 301 302 305 307 308 308 307 306 308 306 305 303 302 302 303 302 303 307 308 307 304 296 287
289 282 286 290 333 252 125 21 1 9 359 343 341 352 336 322 317 310 301 293 292 302 309 310 310 308 306 303 303 302 301 300 298 296 297 298 298 299 302 306 306 303 302 295
316 297 279 295 288 283 74 41 13 356 347 353 334 319 310 302 300 296 288 293 308 312 310 309 307 305 304 303 302 301 299 298 295 293 294 297 297 296 299 300 299 300 297 293
6 317 303 303 302 115 100 26 355 324 302 330 324 319 317 317 308 299 318 327 315 309 306 305 304 303 303 302 301 299 296 294 293 293 295 297 298 297 296 295 295 295 294 289
43 324 307 316 308 337 61 8 337 297 274 19 330 322 320 317 309 316 327 315 307 305 304 303 302 300 298 299 299 295 293 292 293 295 296 295 294 293 292 291 290 289 289 285
336 333 346 329 323 74 25 341 320 303 334 335 322 318 315 312 307 308 308 307 306 303 301 300 298 297 297 297 295 291 290 290 291 292 292 290 289 288 284 283 281 283 284 286
340 341 354 331 327 46 10 339 341 323 318 315 315 314 312 308 305 305 306 306 304 303 302 302 299 296 295 293 290 288 287 289 289 288 287 286 286 285 285 283 279 278 280 282
13 7 348 346 356 8 333 319 317 314 312 314 314 313 311 308 307 307 307 305 304 303 302 301 298 296 294 292 290 289 289 289 287 283 282 282 282 281 279 276 274 272 268 268
108 311 303 293 304 324 318 314 319 318 316 314 312 311 310 308 308 307 306 305 304 303 302 301 299 297 295 294 291 289 288 286 283 281 280 279 277 276 275 272 271 269 270 266
47 325 305 289 323 318 316 327 324 320 315 311 310 310 310 308 306 306 305 304 304 304 303 301 298 296 295 294 290 288 287 285 282 279 277 275 273 274 276 271 268 269 271 270
49 358 331 330 335 316 316 321 320 317 315 314 313 311 309 307 306 307 306 306 306 304 303 301 299 297 296 294 291 289 287 283 280 277 274 272 272 272 271 271 269 246 242 239